Stations météo

Publicité
Gourdon, France (7535): Température de l'air & dewpoint: 06.07.2020 11:00:00 - 12.07.2020 11:00:00 (CEST)Gourdon, France (7535): Température de l'air 5cm: 06.07.2020 11:00:00 - 12.07.2020 11:00:00 (CEST)Gourdon, France (7535): Température de l'air -20cm & Température de l'air -100cm: 06.07.2020 11:00:00 - 12.07.2020 11:00:00 (CEST)Gourdon, France (7535): Vitesse du vent & gusts: 06.07.2020 11:00:00 - 12.07.2020 11:00:00 (CEST)Gourdon, France (7535): Direction du vent: 06.07.2020 11:00:00 - 12.07.2020 11:00:00 (CEST)Gourdon, France (7535): reduced air pressure: 06.07.2020 11:00:00 - 12.07.2020 11:00:00 (CEST)Gourdon, France (7535): visibility: 06.07.2020 11:00:00 - 12.07.2020 11:00:00 (CEST)Gourdon, France (7535): Ensoleillement: 06.07.2020 11:00:00 - 12.07.2020 11:00:00 (CEST)Gourdon, France (7535): Quantités de précipitations: 06.07.2020 11:00:00 - 12.07.2020 11:00:00 (CEST)
Date & Time tt [°C] td [°C] tt 5cm [°C] tt -20cm [°C] tt -100cm [°C] ff [km/h] ff [knt] fx [km/h] fx [knt] dd ppp [hPa] vv [km] sd [min] rr [mm]
12.07.2020 11:00:00 21,9 7,3 32,1 22,3 20,5 5 3 17 9 NNE 1020,9 20 60 0,0
12.07.2020 10:00:00 19,9 8,6 23,1 22,4 20,5 7 4 14 8 N 1021,0 20 60 0,0
12.07.2020 09:00:00 17,9 8,5 16,0 22,5 20,5 3 2 7 4 NNE 1021,5 20 60 0,0
12.07.2020 08:00:00 15,3 7,8 8,1 22,8 20,5 5 3 10 6 NNE 1021,3 20 60 0,0
12.07.2020 07:00:00 11,8 6,5 6,6 23,0 20,5 0 0 10 5 N 1021,1 20 15 0,0
12.07.2020 06:00:00 13,5 6,1 7,0 23,2 20,5 7 4 11 6 ENE 1020,6 20 0 0,0
12.07.2020 05:00:00 12,3 6,8 7,0 23,5 20,5 4 2 10 6 ENE 1020,8 20 0 0,0
12.07.2020 04:00:00 14,8 6,4 7,3 23,7 20,4 5 3 9 5 NNE 1020,6 20 0 0,0
12.07.2020 03:00:00 14,0 7,5 8,0 23,9 20,4 3 2 5 3 N 1020,9 20 0 0,0
12.07.2020 02:00:00 14,7 8,4 9,0 24,1 20,5 0 0 7 4 N 1021,0 20 0 0,0
12.07.2020 01:00:00 18,2 6,7 10,8 24,3 20,5 5 3 10 6 N 1021,0 20 0 0,0
12.07.2020 00:00:00 18,9 7,3 11,9 24,4 20,4 6 4 13 7 NNE 1021,0 20 0 0,0
11.07.2020 23:00:00 19,6 7,7 13,0 24,5 20,4 8 4 13 7 NNE 1020,8 20 0 0,0
11.07.2020 22:00:00 21,1 8,0 15,4 24,6 20,4 6 3 15 8 NNW 1020,2 20 0 0,0
11.07.2020 21:00:00 23,3 8,2 21,2 24,6 20,4 10 5 24 13 NNW 1019,8 20 51 0,0
11.07.2020 20:00:00 25,6 8,6 28,3 24,4 20,4 15 8 28 15 NNW 1019,2 20 60 0,0
11.07.2020 19:00:00 26,5 9,4 30,5 24,2 20,5 14 8 28 15 NNW 1019,2 20 60 0,0
11.07.2020 18:00:00 27,2 10,0 42,5 23,9 20,5 13 7 30 16 NNW 1019,4 20 60 0,0
11.07.2020 17:00:00 27,5 8,9 42,9 23,5 20,5 9 5 28 15 NW 1019,5 20 60 0,0
11.07.2020 16:00:00 27,1 9,0 44,6 23,2 20,4 11 6 35 19 NW 1019,9 20 60 0,0
11.07.2020 15:00:00 26,0 9,3 41,9 22,9 20,4 8 5 24 13 NW 1020,3 20 60 0,0
11.07.2020 14:00:00 25,5 10,5 40,1 22,6 20,4 13 7 24 13 NW 1020,9 20 60 0,0
11.07.2020 13:00:00 24,7 11,3 35,0 22,5 20,4 8 5 27 15 NNW 1021,1 20 58 0,0
11.07.2020 12:00:00 23,6 11,0 33,3 22,4 20,4 10 5 22 12 N 1021,2 20 56 0,0
11.07.2020 11:00:00 22,4 13,2 30,6 22,5 20,4 6 3 16 9 NNW 1021,2 20 60 0,0
11.07.2020 10:00:00 20,9 13,6 24,8 22,5 20,4 6 3 12 7 NNE 1021,4 20 60 0,0
11.07.2020 09:00:00 19,0 14,0 17,5 22,6 20,4 5 3 13 7 N 1021,4 20 60 0,0
11.07.2020 08:00:00 16,3 13,8 13,3 22,9 20,4 3 2 8 4 NNW 1021,5 20 42 0,0
11.07.2020 07:00:00 14,6 13,1 11,4 23,0 20,4 2 1 6 3 SW 1021,2 20 15 0,0
11.07.2020 06:00:00 15,4 13,4 12,4 23,1 20,4 3 1 6 4 W 1020,6 20 0 0,0
11.07.2020 05:00:00 16,0 13,5 12,6 23,2 20,4 2 1 8 4 WSW 1020,2 20 0 0,0
11.07.2020 04:00:00 17,2 13,7 16,0 23,4 20,4 0 0 8 4 N 1020,1 20 0 0,0
11.07.2020 03:00:00 17,5 13,6 16,0 23,4 20,3 4 2 11 6 W 1020,3 20 0 0,0
11.07.2020 02:00:00 18,1 14,0 16,1 23,6 20,4 3 2 12 6 W 1020,2 20 0 0,0
11.07.2020 01:00:00 18,4 14,3 16,2 23,7 20,4 6 4 13 7 WNW 1020,0 20 0 0,0
11.07.2020 00:00:00 19,5 14,5 16,8 23,8 20,4 4 2 14 8 WNW 1019,9 20 0 0,0
10.07.2020 23:00:00 20,7 15,3 19,5 23,8 20,4 6 3 12 6 WNW 1019,5 20 0 0,0
10.07.2020 22:00:00 21,5 15,3 20,8 23,9 20,4 6 3 13 7 WNW 1019,0 20 0 0,0
10.07.2020 21:00:00 22,2 15,1 22,3 23,8 20,3 5 3 12 6 WNW 1018,7 20 0 0,0
10.07.2020 20:00:00 22,6 14,7 23,4 23,8 20,3 8 4 19 10 WNW 1018,1 20 0 0,0
10.07.2020 19:00:00 23,4 15,4 26,2 23,6 20,3 8 4 22 12 WNW 1017,2 20 0 0,0
10.07.2020 18:00:00 24,0 15,8 27,3 23,4 20,3 8 4 21 12 NW 1017,4 20 6 0,0
10.07.2020 17:00:00 25,3 15,9 33,2 23,2 20,4 9 5 26 14 NW 1017,3 20 26 0,0
10.07.2020 16:00:00 26,3 15,7 35,4 23,0 20,3 5 3 22 12 WNW 1017,6 20 41 0,0
10.07.2020 15:00:00 24,1 14,8 34,7 22,9 20,3 8 4 19 10 WNW 1018,3 20 50 0,0
10.07.2020 14:00:00 23,0 14,8 28,8 22,7 20,3 8 4 15 8 W 1018,6 20 18 0,0
10.07.2020 13:00:00 21,5 14,9 28,7 22,7 20,3 7 4 18 10 WSW 1019,2 20 13 0,0
10.07.2020 12:00:00 20,4 14,7 24,1 22,8 20,3 6 4 16 9 WNW 1019,2 20 8 0,0
10.07.2020 11:00:00 18,4 14,7 21,6 22,8 20,2 6 3 19 10 NNW 1019,6 20 0 0,0
10.07.2020 10:00:00 17,8 14,5 20,0 22,9 20,2 5 3 18 10 WNW 1019,5 20 0 0,0
10.07.2020 09:00:00 17,2 14,5 18,0 23,1 20,2 8 4 22 12 NW 1019,1 20 11 0,0
10.07.2020 08:00:00 16,8 14,6 14,5 23,2 20,2 8 4 15 8 WNW 1018,8 20 51 0,0
10.07.2020 07:00:00 15,9 13,4 12,5 23,4 20,2 3 2 9 5 W 1018,7 20 12 0,0
10.07.2020 06:00:00 16,4 13,7 12,7 23,6 20,2 3 2 8 4 W 1017,8 18 0 0,0
10.07.2020 05:00:00 16,8 13,7 13,0 23,8 20,2 3 2 9 5 W 1017,7 20 0 0,0
10.07.2020 04:00:00 17,2 14,5 13,9 23,9 20,2 5 3 8 4 SSW 1017,6 20 0 0,0
10.07.2020 03:00:00 18,2 14,5 14,6 24,1 20,2 2 1 6 4 WNW 1017,4 20 0 0,0
10.07.2020 02:00:00 21,0 14,6 15,6 24,2 20,1 4 2 8 5 NW 1017,1 20 0 0,0
10.07.2020 01:00:00 21,2 15,3 16,5 24,3 20,1 3 2 8 5 W 1017,1 20 0 0,0
10.07.2020 00:00:00 20,7 15,3 17,6 24,5 20,2 4 2 8 4 S 1016,7 20 0 0,0
09.07.2020 23:00:00 22,4 15,5 18,6 24,5 20,1 6 3 8 4 SSE 1016,1 20 0 0,0
09.07.2020 22:00:00 25,8 15,2 20,1 24,5 20,1 2 1 9 5 SSE 1015,5 20 0 0,0
09.07.2020 21:00:00 28,5 15,4 26,1 24,4 20,1 4 2 18 10 WSW 1015,2 20 50 0,0
09.07.2020 20:00:00 31,0 15,4 32,6 24,2 20,1 5 3 14 8 WNW 1014,6 20 60 0,0
09.07.2020 19:00:00 32,1 13,8 34,7 24,0 20,1 5 3 16 9 WSW 1014,7 20 60 0,0
09.07.2020 18:00:00 32,3 12,5 44,0 23,7 20,1 8 4 18 10 WSW 1015,3 20 60 0,0
09.07.2020 17:00:00 31,7 11,5 46,2 23,3 20,1 9 5 25 13 WNW 1015,4 15 60 0,0
09.07.2020 16:00:00 31,6 13,4 46,5 23,0 20,1 10 5 23 13 WNW 1015,8 20 60 0,0
09.07.2020 15:00:00 31,5 14,2 46,1 22,6 20,1 9 5 23 12 WNW 1016,1 20 60 0,0
09.07.2020 14:00:00 30,9 14,1 43,6 22,3 20,1 5 3 19 11 WNW 1016,4 20 60 0,0
09.07.2020 13:00:00 29,8 13,5 40,8 22,2 20,1 8 4 17 9 NW 1016,7 20 60 0,0
09.07.2020 12:00:00 28,9 13,6 37,3 22,1 20,1 6 3 12 7 WNW 1016,8 20 60 0,0
09.07.2020 11:00:00 27,3 15,3 32,7 22,0 20,1 4 2 15 8 W 1017,1 20 60 0,0
09.07.2020 10:00:00 24,6 14,4 24,9 22,1 20,1 4 2 9 5 SSW 1017,1 20 60 0,0
09.07.2020 09:00:00 20,7 13,6 19,0 22,3 20,1 4 2 7 4 WSW 1017,2 20 60 0,0
09.07.2020 08:00:00 17,0 11,7 13,3 22,4 20,1 2 1 6 3 SSE 1017,2 20 60 0,0
09.07.2020 07:00:00 15,0 11,0 10,5 22,6 20,1 5 3 11 6 ESE 1017,0 20 17 0,0
09.07.2020 06:00:00 14,2 10,8 10,7 22,8 20,0 2 1 8 5 E 1017,1 15 0 0,0
09.07.2020 05:00:00 14,5 10,7 11,0 23,0 20,0 2 1 12 7 N 1017,3 20 0 0,0
09.07.2020 04:00:00 15,1 10,9 12,4 23,2 20,0 8 4 13 7 SE 1017,2 20 0 0,0
09.07.2020 03:00:00 15,5 10,9 12,5 23,3 20,0 10 5 12 7 SE 1017,3 20 0 0,0
09.07.2020 02:00:00 16,1 10,8 13,6 23,5 20,0 9 5 12 6 SE 1017,6 20 0 0,0
09.07.2020 01:00:00 16,8 10,4 13,5 23,6 20,0 8 4 10 5 SE 1017,5 20 0 0,0
09.07.2020 00:00:00 18,1 9,7 14,6 23,8 20,0 6 3 15 8 SE 1017,2 20 0 0,0
08.07.2020 23:00:00 19,8 10,5 15,3 23,9 20,0 5 3 8 5 SE 1016,9 20 0 0,0
08.07.2020 22:00:00 23,6 10,6 16,0 23,9 20,0 2 1 10 5 SSW 1015,9 20 0 0,0
08.07.2020 21:00:00 27,0 7,9 21,8 23,8 20,0 6 3 14 8 NNW 1015,3 20 50 0,0
08.07.2020 20:00:00 29,2 7,7 30,7 23,6 20,0 8 5 21 11 N 1014,9 20 60 0,0
08.07.2020 19:00:00 30,1 9,0 32,8 23,3 20,0 9 5 19 10 NW 1015,3 20 60 0,0
08.07.2020 18:00:00 30,4 9,3 45,4 23,0 20,0 7 4 17 9 NW 1016,0 20 60 0,0
08.07.2020 17:00:00 29,9 8,9 46,9 22,6 20,0 10 5 18 10 NW 1016,4 20 60 0,0
08.07.2020 16:00:00 29,6 8,6 45,5 22,3 20,0 6 3 19 10 NNW 1016,9 20 60 0,0
08.07.2020 15:00:00 28,4 8,6 43,0 21,9 20,0 8 5 18 10 NW 1017,3 20 60 0,0
08.07.2020 14:00:00 27,4 9,2 42,6 21,7 20,0 8 4 20 11 NNE 1017,6 20 60 0,0
08.07.2020 13:00:00 26,4 9,3 39,6 21,5 20,0 8 4 17 9 NW 1018,0 20 60 0,0
08.07.2020 12:00:00 25,6 8,6 34,7 21,4 20,0 7 4 13 7 NNW 1018,1 20 60 0,0
08.07.2020 11:00:00 22,8 12,1 30,1 21,4 19,9 4 2 12 6 W 1018,5 20 60 0,0
08.07.2020 10:00:00 20,8 12,0 23,5 21,5 20,0 5 3 10 6 N 1018,5 20 60 0,0
08.07.2020 09:00:00 17,7 11,3 15,8 21,7 19,9 5 3 10 5 N 1018,7 20 60 0,0
08.07.2020 08:00:00 14,5 10,3 9,1 21,9 19,9 3 2 11 6 NNW 1018,6 20 47 0,0
08.07.2020 07:00:00 10,8 8,4 8,1 22,1 19,9 5 3 8 5 ESE 1019,0 20 0 0,0
08.07.2020 06:00:00 12,1 9,5 8,1 22,3 19,9 4 2 9 5 NNW 1018,6 20 0 0,0
08.07.2020 05:00:00 11,2 8,9 8,8 22,5 19,9 6 4 8 5 SE 1018,6 20 0 0,0
08.07.2020 04:00:00 12,5 9,5 9,1 22,6 19,9 0 0 6 4 N 1018,8 20 0 0,0
08.07.2020 03:00:00 13,5 9,9 10,2 22,8 19,9 0 0 4 2 N 1018,9 20 0 0,0
08.07.2020 02:00:00 14,5 9,7 12,5 23,0 19,9 0 0 5 3 N 1019,1 20 0 0,0
08.07.2020 01:00:00 16,6 9,8 12,3 23,1 19,9 4 2 8 4 NNW 1018,8 20 0 0,0
08.07.2020 00:00:00 19,0 9,2 12,3 23,3 19,9 5 3 10 5 NW 1018,7 20 0 0,0
07.07.2020 23:00:00 18,2 10,6 13,0 23,4 19,9 3 2 9 5 WNW 1018,8 20 0 0,0
07.07.2020 22:00:00 21,4 9,3 15,1 23,4 19,9 5 3 12 7 NNW 1018,1 20 0 0,0
07.07.2020 21:00:00 23,4 9,4 20,4 23,3 19,9 8 4 16 9 NNW 1017,6 20 49 0,0
07.07.2020 20:00:00 25,5 8,9 27,5 23,2 19,9 8 5 19 11 N 1017,4 20 60 0,0
07.07.2020 19:00:00 26,0 8,9 30,1 22,9 19,9 8 4 24 13 N 1017,4 20 60 0,0
07.07.2020 18:00:00 25,8 8,7 41,0 22,6 19,9 10 5 24 13 N 1017,8 20 60 0,0
07.07.2020 17:00:00 26,0 8,5 43,7 22,3 19,9 12 6 28 15 N 1018,3 20 60 0,0
07.07.2020 16:00:00 25,4 7,5 41,0 21,9 19,9 12 6 27 15 NNW 1018,8 20 60 0,0
07.07.2020 15:00:00 24,4 7,5 40,3 21,6 19,9 11 6 28 15 N 1019,2 20 60 0,0
07.07.2020 14:00:00 23,8 7,8 40,0 21,4 19,9 14 7 32 17 NNW 1019,6 20 60 0,0
07.07.2020 13:00:00 22,8 6,9 35,7 21,2 19,9 14 7 31 17 NNW 1020,2 20 60 0,0
07.07.2020 12:00:00 21,8 7,2 33,4 21,1 19,9 11 6 27 14 NNW 1020,5 20 60 0,0
07.07.2020 11:00:00 20,0 8,6 27,1 21,2 19,9 8 5 18 10 N 1020,7 20 60 0,0
07.07.2020 10:00:00 17,4 8,8 20,7 21,3 19,9 6 3 13 7 NW 1021,3 20 60 0,0
07.07.2020 09:00:00 15,3 9,0 14,2 21,4 19,8 5 3 11 6 NNW 1021,6 20 60 0,0
07.07.2020 08:00:00 11,8 8,6 8,1 21,7 19,9 0 0 5 3 N 1021,9 20 60 0,0
07.07.2020 07:00:00 8,9 7,0 6,1 21,9 19,9 0 0 5 3 N 1022,2 20 18 0,0
07.07.2020 06:00:00 9,0 7,3 6,3 22,1 19,9 0 0 3 1 N 1021,9 20 0 0,0
07.07.2020 05:00:00 9,9 7,7 6,7 22,4 19,9 0 0 4 2 N 1022,0 20 0 0,0
07.07.2020 04:00:00 10,9 8,1 7,4 22,5 19,8 4 2 9 5 S 1022,2 20 0 0,0
07.07.2020 03:00:00 14,1 8,1 7,7 22,8 19,8 4 2 8 5 N 1022,2 20 0 0,0
07.07.2020 02:00:00 15,1 8,3 8,9 23,0 19,8 6 3 12 7 N 1022,3 20 0 0,0
07.07.2020 01:00:00 15,1 8,3 9,3 23,2 19,8 4 2 11 6 N 1022,5 20 0 0,0
07.07.2020 00:00:00 16,3 8,5 10,9 23,3 19,8 5 3 12 6 N 1022,5 20 0 0,0
06.07.2020 23:00:00 17,8 8,4 13,2 23,4 19,8 5 3 16 9 N 1022,5 20 0 0,0
06.07.2020 22:00:00 19,4 8,7 16,0 23,4 19,8 9 5 22 12 NNW 1021,6 20 0 0,0
06.07.2020 21:00:00 21,5 8,7 20,2 23,4 19,8 12 7 22 12 NNW 1021,0 20 42 0,0
06.07.2020 20:00:00 23,3 8,9 25,0 23,3 19,8 13 7 29 16 NNW 1020,6 20 58 0,0
06.07.2020 19:00:00 24,2 8,6 27,4 23,1 19,8 16 8 30 16 NW 1020,6 20 60 0,0
06.07.2020 18:00:00 25,2 10,3 37,8 22,9 19,8 11 6 33 18 NW 1020,5 20 60 0,0
06.07.2020 17:00:00 25,1 12,0 38,0 22,6 19,8 13 7 33 18 NNW 1020,6 20 55 0,0
06.07.2020 16:00:00 24,7 11,3 40,9 22,3 19,8 14 7 29 16 NW 1020,8 20 58 0,0
06.07.2020 15:00:00 24,2 11,8 38,2 22,0 19,7 13 7 28 15 NNW 1021,0 20 60 0,0
06.07.2020 14:00:00 22,6 12,8 31,8 21,9 19,7 13 7 29 16 NW 1021,4 20 51 0,0
06.07.2020 13:00:00 21,6 13,2 28,1 21,9 19,8 8 5 28 15 NW 1021,7 20 33 0,0
06.07.2020 12:00:00 20,1 13,8 21,7 21,8 19,7 13 7 29 16 NNW 1022,0 20 24 0,0
06.07.2020 11:00:00 18,0 16,3 19,7 21,9 19,7 11 6 21 12 NNW 1022,1 20 15 0,2

tt = Température de l'air
td = dewpoint
tt 5cm = Température de l'air 5cm
tt -20cm = Température de l'air -20cm
tt -100cm = Température de l'air -100cm
ff = Vitesse du vent
fx = gusts
dd = Direction du vent
ppp = reduced air pressure
vv = visibility
sd = Ensoleillement
rr = Quantités de précipitations

stations d'obs. à proximité